Location: Chuathbaluk
(61.5726°N, 159.2454°W)
Time: 07:04:09
(UTC+00:00)

XW-2F - Pass Details

Date: 17 January 2021
Orbit: 499 x 520 km, 97.5° (Epoch: 09 March)

Event Time Altitude Azimuth Distance (km) Brightness Sun altitude
Rises 16:54:12 0° 17° (NNE) 2,657 ? -17.2°
Reaches altitude 10° 16:56:20 10° 22° (NNE) 1,768 ? -17.0°
Maximum altitude 17:00:07 60° 102° (ESE) 606 ? -16.5°
Drops below altitude 10° 17:03:53 10° 184° (S) 1,761 ? -16.1°
Sets 17:06:00 0° 188° (S) 2,646 ? -15.8°
